Location: Anna District 4 Election Precinct
(37.4833°N, 89.2195°W)
Time: 13:39:48
(UTC+00:00)

Cosmos 1825 Rocket - Pass Details

Date: 29 October 2020
Orbit: 603 x 632 km, 82.5° (Epoch: 04 December)

Event Time Altitude Azimuth Distance (km) Brightness Sun altitude
Rises 23:38:53 0° 347° (NNW) 2,917 7.0 -8.1°
Reaches altitude 10° 23:41:10 10° 343° (NNW) 2,001 6.3 -8.5°
Maximum altitude 23:45:29 53° 267° (W) 760 4.5 -9.3°
Drops below altitude 10° 23:49:44 10° 190° (S) 1,969 6.4 -10.2°
Sets 23:51:58 0° 186° (S) 2,865 7.2 -10.6°
